LOT321 EDDF-EDDM

Flight info

Callsign LOT321
Flight time 0h 38m
Altitude 23000
Route CINDY8S/18 CINDY Z74 HAREM T104 ROKIL ROKIL1B
Aircraft B738/M-SDE2E3FGHIRWXY/LB1

Departure

Time 2026-05-04 19:23
Airport Frankfurt Main Airport (EDDF)

Arrival

Time 2026-05-04 20:01
Airport Munich Airport (EDDM)
Time Latitude Longitude Altitude Speed Heading
2026-05-04 18:35 50.04848 8.58903 338 ft 0 kts 340°
2026-05-04 19:04 50.04847 8.58903 359 ft 2 kts 340°
2026-05-04 19:04 50.04832 8.58912 364 ft 2 kts 340°
2026-05-04 19:04 50.04817 8.58921 364 ft 2 kts 339°
2026-05-04 19:04 50.04801 8.58930 361 ft 2 kts 339°
2026-05-04 19:05 50.04786 8.58939 362 ft 2 kts 339°
2026-05-04 19:05 50.04778 8.58944 361 ft 0 kts 340°
2026-05-04 19:11 50.04780 8.58941 359 ft 1 kts 319°
2026-05-04 19:12 50.04777 8.58928 359 ft 2 kts 246°
2026-05-04 19:12 50.04744 8.58775 359 ft 5 kts 303°
2026-05-04 19:12 50.04781 8.58744 359 ft 12 kts 333°
2026-05-04 19:13 50.04856 8.58700 361 ft 11 kts 343°
2026-05-04 19:13 50.04927 8.58626 359 ft 13 kts 290°
2026-05-04 19:13 50.04911 8.58504 361 ft 16 kts 250°
2026-05-04 19:13 50.04868 8.58320 364 ft 20 kts 250°
2026-05-04 19:14 50.04834 8.58187 364 ft 14 kts 249°
2026-05-04 19:14 50.04806 8.58067 359 ft 3 kts 250°
2026-05-04 19:14 50.04773 8.57982 362 ft 14 kts 224°
2026-05-04 19:14 50.04691 8.57827 360 ft 21 kts 248°
2026-05-04 19:15 50.04626 8.57564 361 ft 30 kts 249°
2026-05-04 19:15 50.04554 8.57258 365 ft 30 kts 249°
2026-05-04 19:15 50.04487 8.56979 360 ft 21 kts 249°
2026-05-04 19:15 50.04436 8.56765 361 ft 21 kts 249°
2026-05-04 19:16 50.04387 8.56559 360 ft 20 kts 250°
2026-05-04 19:16 50.04339 8.56358 363 ft 20 kts 249°
2026-05-04 19:16 50.04293 8.56166 362 ft 18 kts 250°
2026-05-04 19:16 50.04251 8.55988 363 ft 17 kts 249°
2026-05-04 19:17 50.04209 8.55818 362 ft 17 kts 249°
2026-05-04 19:17 50.04170 8.55653 358 ft 16 kts 250°
2026-05-04 19:17 50.04129 8.55481 358 ft 18 kts 250°
2026-05-04 19:17 50.04084 8.55293 359 ft 19 kts 250°
2026-05-04 19:18 50.04038 8.55100 365 ft 19 kts 250°
2026-05-04 19:18 50.03994 8.54913 362 ft 18 kts 250°
2026-05-04 19:18 50.03951 8.54732 360 ft 19 kts 250°
2026-05-04 19:18 50.03902 8.54532 361 ft 21 kts 249°
2026-05-04 19:19 50.03839 8.54322 360 ft 15 kts 234°
2026-05-04 19:19 50.03789 8.54175 362 ft 11 kts 249°
2026-05-04 19:19 50.03758 8.54050 360 ft 13 kts 249°
2026-05-04 19:19 50.03728 8.53925 362 ft 12 kts 250°
2026-05-04 19:20 50.03699 8.53802 361 ft 12 kts 249°
2026-05-04 19:20 50.03668 8.53674 359 ft 14 kts 249°
2026-05-04 19:20 50.03626 8.53509 359 ft 19 kts 248°
2026-05-04 19:20 50.03575 8.53299 360 ft 23 kts 249°
2026-05-04 19:21 50.03517 8.53049 361 ft 26 kts 249°
2026-05-04 19:21 50.03449 8.52790 360 ft 19 kts 247°
2026-05-04 19:21 50.03409 8.52629 361 ft 7 kts 250°
2026-05-04 19:21 50.03372 8.52592 361 ft 6 kts 181°
2026-05-04 19:22 50.03350 8.52593 362 ft 0 kts 179°
2026-05-04 19:22 50.03304 8.52594 365 ft 29 kts 179°
2026-05-04 19:22 50.02826 8.52597 358 ft 106 kts 179°
2026-05-04 19:23 50.01871 8.52585 371 ft 166 kts 184°
2026-05-04 19:23 50.00687 8.52544 1034 ft 169 kts 181°
2026-05-04 19:23 49.99515 8.52540 1889 ft 169 kts 181°
2026-05-04 19:23 49.98302 8.52523 2504 ft 187 kts 180°
2026-05-04 19:24 49.96939 8.53031 2780 ft 217 kts 149°
2026-05-04 19:24 49.95851 8.54757 3204 ft 230 kts 123°
2026-05-04 19:24 49.95037 8.56906 3812 ft 232 kts 120°
2026-05-04 19:24 49.94278 8.59131 4414 ft 234 kts 113°
2026-05-04 19:25 49.93974 8.61664 4926 ft 246 kts 94°
2026-05-04 19:25 49.93882 8.64440 5215 ft 267 kts 94°
2026-05-04 19:25 49.93763 8.67332 5883 ft 275 kts 101°
2026-05-04 19:25 49.93039 8.70022 6772 ft 270 kts 130°
2026-05-04 19:26 49.91660 8.71974 7640 ft 269 kts 146°
2026-05-04 19:26 49.90115 8.73664 8458 ft 274 kts 148°
2026-05-04 19:26 49.88575 8.75454 9268 ft 281 kts 137°
2026-05-04 19:26 49.87466 8.78001 10079 ft 289 kts 122°
2026-05-04 19:27 49.86482 8.80773 10645 ft 301 kts 121°
2026-05-04 19:27 49.85446 8.83701 10959 ft 321 kts 122°
2026-05-04 19:27 49.84310 8.86858 10981 ft 349 kts 122°
2026-05-04 19:27 49.83108 8.90185 10975 ft 357 kts 122°
2026-05-04 19:28 49.81890 8.93551 11004 ft 361 kts 122°
2026-05-04 19:28 49.80655 8.96957 11681 ft 363 kts 122°
2026-05-04 19:28 49.79414 9.00374 12507 ft 365 kts 122°
2026-05-04 19:28 49.78161 9.03811 13336 ft 368 kts 122°
2026-05-04 19:29 49.76893 9.07282 14068 ft 373 kts 122°
2026-05-04 19:29 49.75817 9.10959 14759 ft 381 kts 108°
2026-05-04 19:29 49.75210 9.14965 15528 ft 385 kts 104°
2026-05-04 19:29 49.74431 9.18923 16203 ft 386 kts 120°
2026-05-04 19:30 49.72869 9.22264 16940 ft 385 kts 133°
2026-05-04 19:30 49.71100 9.25330 17668 ft 388 kts 134°
2026-05-04 19:30 49.69272 9.28435 18344 ft 393 kts 134°
2026-05-04 19:30 49.67433 9.31578 18934 ft 397 kts 134°
2026-05-04 19:31 49.65588 9.34774 19548 ft 400 kts 134°
2026-05-04 19:31 49.63734 9.38009 20148 ft 404 kts 134°
2026-05-04 19:31 49.61869 9.41267 20732 ft 407 kts 134°
2026-05-04 19:31 49.59992 9.44565 21297 ft 411 kts 134°
2026-05-04 19:32 49.58102 9.47902 21837 ft 415 kts 134°
2026-05-04 19:32 49.56194 9.51275 22396 ft 419 kts 134°
2026-05-04 19:32 49.54266 9.54679 22910 ft 423 kts 134°
2026-05-04 19:32 49.52310 9.58125 22957 ft 431 kts 134°
2026-05-04 19:33 49.50325 9.61615 22985 ft 436 kts 134°
2026-05-04 19:33 49.48353 9.65082 22973 ft 434 kts 134°
2026-05-04 19:33 49.46367 9.68567 22981 ft 433 kts 134°
2026-05-04 19:33 49.44376 9.72057 22980 ft 433 kts 134°
2026-05-04 19:34 49.42388 9.75536 22983 ft 433 kts 134°
2026-05-04 19:34 49.40395 9.79019 22991 ft 434 kts 134°
2026-05-04 19:34 49.38401 9.82495 23001 ft 434 kts 134°
2026-05-04 19:34 49.36392 9.85969 22996 ft 434 kts 134°
2026-05-04 19:35 49.34375 9.89428 22994 ft 435 kts 135°
2026-05-04 19:35 49.32381 9.92836 22992 ft 435 kts 135°
2026-05-04 19:35 49.30357 9.96294 22994 ft 435 kts 135°
2026-05-04 19:35 49.28337 9.99744 22993 ft 435 kts 135°
2026-05-04 19:36 49.26315 10.03196 22989 ft 435 kts 135°
2026-05-04 19:36 49.24294 10.06647 22986 ft 435 kts 135°
2026-05-04 19:36 49.22274 10.10089 22989 ft 435 kts 135°
2026-05-04 19:36 49.20251 10.13530 22987 ft 435 kts 135°
2026-05-04 19:37 49.18237 10.16978 22979 ft 435 kts 134°
2026-05-04 19:37 49.16233 10.20445 22989 ft 434 kts 134°
2026-05-04 19:37 49.14232 10.23907 22981 ft 434 kts 134°
2026-05-04 19:37 49.12196 10.27313 22979 ft 434 kts 136°
2026-05-04 19:38 49.10115 10.30653 22984 ft 434 kts 136°
2026-05-04 19:38 49.08049 10.33931 22982 ft 434 kts 136°
2026-05-04 19:38 49.05963 10.37251 22979 ft 434 kts 136°
2026-05-04 19:38 49.03884 10.40581 22985 ft 434 kts 136°
2026-05-04 19:39 49.01809 10.43913 22985 ft 434 kts 136°
2026-05-04 19:39 48.99725 10.47247 22985 ft 433 kts 136°
2026-05-04 19:39 48.97628 10.50544 22988 ft 432 kts 137°
2026-05-04 19:39 48.95566 10.53768 22973 ft 419 kts 137°
2026-05-04 19:40 48.93550 10.56934 22971 ft 414 kts 136°
2026-05-04 19:40 48.91561 10.60105 22975 ft 414 kts 136°
2026-05-04 19:40 48.89573 10.63287 22995 ft 416 kts 136°
2026-05-04 19:40 48.87607 10.66434 22969 ft 415 kts 136°
2026-05-04 19:41 48.85656 10.69555 22944 ft 398 kts 136°
2026-05-04 19:41 48.83768 10.72565 22622 ft 390 kts 136°
2026-05-04 19:41 48.81886 10.75553 21710 ft 395 kts 136°
2026-05-04 19:41 48.79963 10.78589 20801 ft 402 kts 136°
2026-05-04 19:42 48.78016 10.81633 20158 ft 401 kts 137°
2026-05-04 19:42 48.76087 10.84640 19635 ft 396 kts 137°
2026-05-04 19:42 48.74178 10.87615 19126 ft 392 kts 137°
2026-05-04 19:42 48.72282 10.90569 18572 ft 389 kts 137°
2026-05-04 19:43 48.70398 10.93501 18001 ft 387 kts 137°
2026-05-04 19:43 48.68526 10.96413 17437 ft 383 kts 137°
2026-05-04 19:43 48.66678 10.99286 16911 ft 379 kts 137°
2026-05-04 19:43 48.64846 11.02133 16394 ft 375 kts 137°
2026-05-04 19:44 48.63037 11.04942 15862 ft 371 kts 137°
2026-05-04 19:44 48.61242 11.07725 15354 ft 368 kts 137°
2026-05-04 19:44 48.59464 11.10479 14832 ft 365 kts 137°
2026-05-04 19:44 48.57659 11.13139 14358 ft 360 kts 143°
2026-05-04 19:45 48.55644 11.15317 13879 ft 354 kts 149°
2026-05-04 19:45 48.53604 11.17364 13377 ft 350 kts 149°
2026-05-04 19:45 48.51609 11.19393 13117 ft 340 kts 148°
2026-05-04 19:45 48.49777 11.21570 12902 ft 332 kts 142°
2026-05-04 19:46 48.48103 11.23887 12629 ft 327 kts 140°
2026-05-04 19:46 48.46451 11.26199 12437 ft 322 kts 141°
2026-05-04 19:46 48.44783 11.28488 12261 ft 327 kts 141°
2026-05-04 19:46 48.43116 11.30850 12079 ft 333 kts 134°
2026-05-04 19:47 48.41967 11.33904 11890 ft 340 kts 111°
2026-05-04 19:47 48.41652 11.37434 11716 ft 345 kts 89°
2026-05-04 19:47 48.41880 11.41033 11550 ft 345 kts 85°
2026-05-04 19:47 48.42182 11.44626 11361 ft 346 kts 85°
2026-05-04 19:48 48.42392 11.47006 11236 ft 346 kts 85°
2026-05-04 19:48 48.42707 11.50599 11054 ft 346 kts 85°
2026-05-04 19:48 48.43014 11.54190 10860 ft 345 kts 85°
2026-05-04 19:48 48.43312 11.57778 10683 ft 345 kts 85°
2026-05-04 19:49 48.43601 11.61345 10501 ft 339 kts 85°
2026-05-04 19:49 48.43876 11.64782 10314 ft 330 kts 85°
2026-05-04 19:49 48.44143 11.68159 10145 ft 320 kts 85°
2026-05-04 19:49 48.44400 11.71447 9977 ft 311 kts 85°
2026-05-04 19:50 48.44646 11.74605 9901 ft 294 kts 86°
2026-05-04 19:50 48.44880 11.77641 9673 ft 290 kts 86°
2026-05-04 19:50 48.45110 11.80640 9511 ft 286 kts 86°
2026-05-04 19:50 48.45336 11.83611 9358 ft 285 kts 86°
2026-05-04 19:51 48.45562 11.86593 9204 ft 286 kts 85°
2026-05-04 19:51 48.45787 11.89570 9054 ft 287 kts 85°
2026-05-04 19:51 48.46013 11.92559 8907 ft 288 kts 85°
2026-05-04 19:51 48.46239 11.95568 8721 ft 289 kts 85°
2026-05-04 19:52 48.46467 11.98623 8126 ft 298 kts 85°
2026-05-04 19:52 48.46702 12.01763 7564 ft 304 kts 85°
2026-05-04 19:52 48.46937 12.04919 7017 ft 309 kts 85°
2026-05-04 19:52 48.47178 12.08165 6466 ft 313 kts 85°
2026-05-04 19:53 48.47421 12.11449 5894 ft 316 kts 85°
2026-05-04 19:53 48.47665 12.14752 5326 ft 318 kts 84°
2026-05-04 19:53 48.47945 12.18068 4759 ft 320 kts 77°
2026-05-04 19:53 48.48523 12.21276 4347 ft 313 kts 73°
2026-05-04 19:54 48.49327 12.24312 4065 ft 305 kts 74°
2026-05-04 19:54 48.49514 12.27397 3982 ft 290 kts 99°
2026-05-04 19:54 48.48718 12.30067 3965 ft 275 kts 131°
2026-05-04 19:54 48.47170 12.31557 3968 ft 261 kts 165°
2026-05-04 19:55 48.45388 12.31451 3976 ft 262 kts 200°
2026-05-04 19:55 48.43933 12.29848 3997 ft 262 kts 229°
2026-05-04 19:55 48.42842 12.27702 3979 ft 261 kts 233°
2026-05-04 19:55 48.41779 12.25457 3980 ft 259 kts 234°
2026-05-04 19:56 48.40754 12.23275 3978 ft 258 kts 234°
2026-05-04 19:56 48.39810 12.20989 3970 ft 258 kts 250°
2026-05-04 19:56 48.39510 12.18349 4007 ft 258 kts 264°
2026-05-04 19:56 48.39325 12.15643 4004 ft 260 kts 263°
2026-05-04 19:57 48.39117 12.12995 4014 ft 246 kts 263°
2026-05-04 19:57 48.38919 12.10538 3988 ft 227 kts 262°
2026-05-04 19:57 48.38737 12.08268 3977 ft 209 kts 262°
2026-05-04 19:57 48.38571 12.06171 3989 ft 198 kts 262°
2026-05-04 19:58 48.38408 12.04119 3989 ft 197 kts 262°
2026-05-04 19:58 48.38245 12.02064 3997 ft 199 kts 262°
2026-05-04 19:58 48.38079 11.99959 3787 ft 204 kts 263°
2026-05-04 19:58 48.37912 11.97842 3524 ft 202 kts 263°
2026-05-04 19:59 48.37748 11.95754 3274 ft 199 kts 263°
2026-05-04 19:59 48.37589 11.93718 3006 ft 193 kts 263°
2026-05-04 19:59 48.37439 11.91801 2761 ft 179 kts 263°
2026-05-04 19:59 48.37298 11.89988 2520 ft 166 kts 264°
2026-05-04 20:00 48.37171 11.88354 2348 ft 153 kts 264°
2026-05-04 20:00 48.37048 11.86764 2109 ft 152 kts 264°
2026-05-04 20:00 48.36927 11.85198 1895 ft 149 kts 264°
2026-05-04 20:00 48.36807 11.83652 1714 ft 149 kts 264°
2026-05-04 20:01 48.36685 11.82100 1534 ft 149 kts 264°
2026-05-04 20:01 48.36577 11.80662 1479 ft 114 kts 263°
2026-05-04 20:01 48.36511 11.79808 1484 ft 52 kts 263°
2026-05-04 20:01 48.36468 11.79278 1484 ft 41 kts 263°
2026-05-04 20:02 48.36423 11.78981 1475 ft 22 kts 246°
2026-05-04 20:02 48.36362 11.78833 1477 ft 13 kts 233°
2026-05-04 20:02 48.36310 11.78724 1481 ft 13 kts 234°
2026-05-04 20:02 48.36258 11.78619 1484 ft 12 kts 233°
2026-05-04 20:03 48.36224 11.78551 1484 ft 4 kts 233°
2026-05-04 20:03 48.36219 11.78541 1484 ft 1 kts 233°
2026-05-04 20:03 48.36214 11.78531 1484 ft 3 kts 233°
2026-05-04 20:03 48.36181 11.78490 1484 ft 9 kts 207°
2026-05-04 20:04 48.36117 11.78479 1481 ft 9 kts 176°
2026-05-04 20:04 48.36054 11.78497 1481 ft 4 kts 146°
2026-05-04 20:04 48.36038 11.78533 1478 ft 4 kts 110°
2026-05-04 20:04 48.36038 11.78577 1479 ft 4 kts 83°
2026-05-04 20:05 48.36041 11.78620 1484 ft 4 kts 84°
2026-05-04 20:05 48.36044 11.78662 1484 ft 4 kts 85°
2026-05-04 20:05 48.36047 11.78704 1484 ft 4 kts 81°
2026-05-04 20:05 48.36052 11.78772 1478 ft 11 kts 83°
2026-05-04 20:06 48.36063 11.78900 1474 ft 12 kts 83°
2026-05-04 20:06 48.36071 11.79014 1484 ft 11 kts 84°
2026-05-04 20:06 48.36078 11.79098 1473 ft 7 kts 83°
2026-05-04 20:06 48.36083 11.79170 1482 ft 7 kts 83°
2026-05-04 20:07 48.36089 11.79242 1484 ft 7 kts 84°
2026-05-04 20:07 48.36073 11.79302 1480 ft 6 kts 139°
2026-05-04 20:07 48.36036 11.79332 1478 ft 4 kts 165°
2026-05-04 20:07 48.36004 11.79337 1482 ft 5 kts 175°
2026-05-04 20:08 48.35973 11.79340 1476 ft 5 kts 176°
2026-05-04 20:08 48.35930 11.79351 1472 ft 8 kts 159°
2026-05-04 20:08 48.35869 11.79384 1477 ft 11 kts 172°
2026-05-04 20:08 48.35796 11.79405 1480 ft 7 kts 137°
2026-05-04 20:09 48.35792 11.79524 1478 ft 16 kts 79°
2026-05-04 20:09 48.35813 11.79699 1480 ft 17 kts 82°
2026-05-04 20:09 48.35817 11.79872 1475 ft 16 kts 84°
2026-05-04 20:09 48.35823 11.80028 1484 ft 9 kts 108°
2026-05-04 20:10 48.35792 11.80059 1484 ft 10 kts 164°
2026-05-04 20:10 48.35703 11.80077 1477 ft 14 kts 191°
2026-05-04 20:10 48.35609 11.80074 1472 ft 13 kts 175°
2026-05-04 20:10 48.35559 11.80067 1482 ft 1 kts 228°
2026-05-04 20:11 48.35551 11.80043 1475 ft 7 kts 248°
2026-05-04 20:11 48.35548 11.79996 1483 ft 0 kts 267°